Regional Weather Roundup
Issued by NWS

Home | Current Version | Previous Version | Graphics & Text | Print | Product List | Glossary On
Versions: 1 2 3 4 5 6 7 8 9 10 11 12 13 14 15 16 17 18 19 20 21 22 23 24 25 26 27 28 29 30 31 32 33 34 35 36 37 38 39 40 41 42 43 44 45 46 47 48 49 50
000
ASUS43 KMKX 200400
RWRWI

WISCONSIN REGIONAL WEATHER ROUNDUP
NATIONAL WEATHER SERVICE MILWAUKEE/SULLIVAN WI
1000 PM CST MON FEB 19 2018

NOTE: "FAIR" INDICATES FEW OR NO CLOUDS BELOW 12,000 FEET WITH NO
SIGNIFICANT WEATHER AND/OR OBSTRUCTIONS TO VISIBILITY.

WIZ001-002-006>008-014>016-023>028-200500-
NORTHWEST WISCONSIN

CITY           SKY/WX    TMP DP  RH WIND       PRES   REMARKS
SUPERIOR ARPT  LGT SNOW  16  13  88 NE15G24   30.03F WCI   2
ASHLAND        LGT SNOW  19  17  92 NE18G31   30.03F FOG     WCI   4
HAYWARD        MIX PCPN  18  14  84 NE14      29.93F WCI   4
SIREN          LGT SNOW  18  15  88 NE7       29.96R WCI   8
CUMBERLAND     CLOUDY    18  16  93 NE10      29.89F FOG     WCI   6
RICE LAKE      CLOUDY    19  17  93 N10       29.92S FOG     WCI   7
CHETEK         CLOUDY    19  17  93 NE7       29.90S FOG     WCI  10
LADYSMITH      CLOUDY    19  17  92 NE12G17   29.90F WCI   7
EAU CLAIRE     NOT AVBL
MENOMONIE      CLOUDY    22  20  92 N8        29.88S WCI  13
NEW RICHMOND   CLOUDY    19  16  88 NE14      29.89S WCI   6
OSCEOLA        CLOUDY    20  17  90 NE12      29.95R WCI   8
$$

WIZ003>005-009-010-017-018-200500-
NORTH CENTRAL WISCONSIN

CITY           SKY/WX    TMP DP  RH WIND       PRES   REMARKS
MANITOWISH WTR CLOUDY    16  16 100 NE10      29.89F FOG     WCI   3
ARBOR VITAE    CLOUDY    19  17  92 NE7       29.88F FOG     WCI  10
WOODRUFF       CLOUDY    19  17  92 NE7       29.88F FOG     WCI  10
RHINELANDER    CLOUDY    21  19  92 E7        29.86F FOG     WCI  12
EAGLE RIVER    MIX PCPN  19  19  96 NE10G16   29.87F WCI   8
LAND O LAKES   CLOUDY    19  18  93 NE7       29.90F FOG     WCI  10
PHILLIPS       CLOUDY    17  17  98 N6        29.88S WCI   9
TOMAHAWK       CLOUDY    20  18  93 NE7       29.87F FOG     WCI  11
MEDFORD        CLOUDY    21  19  93 NE9       29.84S FOG     WCI  11
MERRILL        CLOUDY    23  22  96 NE8       29.86F FOG     WCI  14
$$

WIZ029-030-035-036-043>047-200500-
CENTRAL WISCONSIN

CITY           SKY/WX    TMP DP  RH WIND       PRES   REMARKS
WAUSAU         CLOUDY    26  24  92 NE7       29.83S FOG     WCI  18
MOSINEE        NOT AVBL
MARSHFIELD     CLOUDY    26  25  96 NE13      29.81S FOG     WCI  15
STEVENS POINT  MIX PCPN  25  25 100 NE8       29.83S WCI  16
WAUPACA        CLOUDY    31  29  91 NE3       29.84S FOG
WAUTOMA        CLOUDY    29  28  96 NE9       29.82R FOG     WCI  20
WISC RAPIDS    CLOUDY    27  24  89 NE10      29.83S FOG     WCI  17
CAMP DOUGLAS   FRZ DRZL  30  30  99 CALM      29.81R FOG
$$

WIZ011>013-019>022-031-037>040-048>050-200500-
NORTHEAST WISCONSIN

CITY           SKY/WX    TMP DP  RH WIND       PRES   REMARKS
ANTIGO         CLOUDY    24  24  97 NE12      29.84S FOG     WCI  13
SHAWANO        CLOUDY    29  26  91 NE8       29.86S WCI  21
OCONTO         CLOUDY    28  27  94 NE12      29.87F WCI  18
STURGEON BAY   MIX PCPN  32  31  96 NE10      29.85F FOG     WCI  24
GREEN BAY      CLOUDY    28  25  88 NE18      29.84S FOG     WCI  15
MANITOWOC      MIX PCPN  34  34 100 VRB5      29.82F FOG     WCI  30
APPLETON       FRZ DRZL  28  28 100 NE10      29.79F WCI  19
CLINTONVILLE   CLOUDY    28  26  93 NE8       29.85S FOG     WCI  20
OSHKOSH        CLOUDY    30  30 100 NE7       29.80F FOG     WCI  23
$$

WIZ032>034-041-042-053>061-200500-
SOUTHWEST WISCONSIN

CITY           SKY/WX    TMP DP  RH WIND       PRES   REMARKS
LA CROSSE      CLOUDY    33  31  92 N6        29.81R FOG     WCI  28
SPARTA         CLOUDY    31  30  97 E6        29.82S FOG     WCI  25
VIROQUA        CLOUDY    32  32 100 NE8       29.77R WCI  25
BOSCOBEL       FOG       36  36 100 CALM      29.78R VSB 1
PRAIRIE DU CHI FOG       36  35  96 CALM      29.76S VSB 3/4
PLATTEVILLE    CLOUDY    37  37 100 CALM      29.75R VSB 1/4
$$

WIZ056-057-062-063-064-067-068-200500-
SOUTH CENTRAL WISCONSIN

CITY           SKY/WX    TMP DP  RH WIND       PRES   REMARKS
REEDSBURG      CLOUDY    30  30 100 NE6       29.79R FOG     WCI  24
BARABOO/DELLS  CLOUDY    31  30  98 NE8       29.78R FOG     WCI  23
LONE ROCK      CLOUDY    35  35 100 NE6       29.79R FOG     WCI  30
MINERAL POINT  LGT RAIN  37  37 100 CALM      29.75R VSB 1/4
MADISON        DRIZZLE   34  34 100 N6        29.78R FOG     WCI  29
MIDDLETON      CLOUDY    36  36 100 NE3       29.76S
WATERTOWN      LGT RAIN  35  35 100 CALM      29.77R
MONROE         FOG       43  43 100 S8        29.74S VSB 1/4
JANESVILLE     DRZL/FOG  37  37 100 NW5       29.76R VSB 1/2 WCI  34
$$

WIZ051-052-058>065-066-070>072-200500-
SOUTHEAST WISCONSIN

CITY           SKY/WX    TMP DP  RH WIND       PRES   REMARKS
MILWAUKEE      LGT RAIN  37  37 100 CALM      29.78F FOG
WAUKESHA       RAIN      34  32  93 E5        29.78F WCI  30
MILWAUKEE/TIMM LGT RAIN  34  32  93 CALM      29.80S
RACINE         LGT RAIN  36  36 100 CALM      29.80F VSB 1/4
BURLINGTON     FOG       36  35  96 CALM      29.78S VSB 1/4
KENOSHA        LGT RAIN  39  37  92 S5        29.78F VSB 1/2
FOND DU LAC    LGT RAIN  34  31  88 NE8       29.80S FOG     WCI  27
SHEBOYGAN      CLOUDY    34  34 100 NE10      29.80S FOG     WCI  26
WEST BEND      LGT RAIN  34  34 100 E7        29.79R WCI  28
JUNEAU         RAIN      33  33  99 N3        29.78S
$$

LSZ147-162-200500-
LAKE SUPERIOR

STATION/POSITION TIME  TEMP    WIND        PRES    WAVE
                       AIR SEA DIR/SP/G            HT/PER
                 (UTC) (F)     (DEG/KT/KT) (MB)    (FT/S)
DEVILS ISLAND    0300   19      40/ 30/ 36 1019.9R
SAXON HARBOR     0340   19      50/ 25/ 30 1015.9F
$$

LMZ867-665-643>646-200500-
LAKE MICHIGAN

STATION/POSITION TIME  TEMP    WIND        PRES    WAVE
                       AIR SEA DIR/SP/G            HT/PER
                 (UTC) (F)     (DEG/KT/KT) (MB)    (FT/S)
NORTHPORT PIER   0344   33                 1011.9F
KEWAUNEE LAKESHO 0330   34      40/ 11/ 13 1009.5F
SHEBOYGAN LAKESH 0300   35      10/ 11/ 12 1009.8F
PORT WASHINGTON  0340   37     330/  3/ 10 1010.2F
MILWAUKEE LAKESH 0330   36     330/  5/  6   N/A
KENOSHA   LAKESH 0300   35      CALM  /  1 1009.1
$$

TC  - TEMPERATURE IN CELSIUS
VSB - VISIBILITY IN STATUTE MILES
WCI - WIND CHILL INDEX
HX  - HEAT INDEX




USA.gov is the U.S. government's official web portal to all federal, state and local government web resources and services.